Volver al catálogo

STARLINK-34170

ActivoComunicacionesVLEO
NORAD 63955·PAYLOAD·🇺🇸 United States

Lanzado May 13, 2025 desde Cape Canaveral Space Force Station

Loading…

Próximos Pases (próximas 24 horas)

TLE

ActualizadoSource: CelesTrak SupGP

Época: Sep 15, 2026, 02:27 UTC

1 63955C 25099D   26258.10256944 -.00028725  00000+0 -10407-2 0  2584
2 63955  43.0024 186.8661 0001486 271.6809 338.7682 15.27584073    11

Sigue STARLINK-34170 en tiempo real con AllMySat

Download on the App Store